User: anonymous   Login
Location: Fremont
(37.5480°N, 121.9880°W)
Time: 12:18:48
(UTC-07:00)
Language:

Cosmos 1844 Rocket - Orbit

View from above orbital plane
View from above orbital plane
View from above satellite
View from above satellite

Ground track
Ground track

The orbit data is extracted from the following two-line orbital elements,

1 17974U 87041B   15144.32639792  .00000229  00000-0  13704-3 0  9995
2 17974 071.0093 060.1932 0011910 109.3529 028.9975 14.17166000449735
Epoch (UTC): 24 May 2015 07:50:00
Eccentricity: 0.0011910
inclination: 71.0093°
perigee height: 826 km
apogee height: 843 km
right ascension of ascending node: 60.1932°
argument of perigee: 109.3529°
revolutions per day: 14.17166000
mean anomaly at epoch: 28.9975°
orbit number at epoch: 44973

The dashed part of the orbit path shows where the satellite is in the earth's shadow,  

DLR